Weather History for KODX - March, 2013

Change the Weather History Date:

Sunday, March 17, 2013

  Actual Average Record
Temperature  
Mean Temperature 34 °F 38 °F  
Max Temperature 41 °F 51 °F 84 °F (2012)
Min Temperature 26 °F 25 °F 21 °F (2005)
Degree Days  
Heating Degree Days 31 27  
Month to date heating degree days 531 512  
Since 1 July heating degree days 5500 5529  
Cooling Degree Days 0 0  
Month to date cooling degree days 0 0  
Year to date cooling degree days 0 0  
Moisture  
Dew Point 26 °F    
Average Humidity 78    
Maximum Humidity 96    
Minimum Humidity 59    
Precipitation  
Precipitation 0.05 in 0.04 in 3.01 in (1987)
Month to date precipitation 0.28 0.43  
Year to date precipitation 1.90 1.24  
Sea Level Pressure  
Sea Level Pressure 29.87 in    
Wind  
Wind Speed 13 mph (SSE)    
Max Wind Speed 24 mph    
Max Gust Speed 31 mph    
Visibility 9 miles    
Events Rain    
T = Trace of Precipitation, MM = Missing Value Source: NWS Daily Summary

Daily Weather History Graph

Daily Weather History Graph

Search for Another Location

Airport or City:

Trip Planner

Search our weather history database for the weather conditions in past years. The results will help you decide how hot, cold, wet, or windy it might be!

Date:

Astronomy

Mar. 17, 2013 Rise Set
Actual Time 7:43 AM CDT 7:44 PM CDT
Civil Twilight 7:16 AM CDT 8:12 PM CDT
Nautical Twilight 6:43 AM CDT 8:45 PM CDT
Astronomical Twilight 6:10 AM CDT 9:17 PM CDT
Moon 10:53 AM CDT (3/17) 12:58 AM CDT (3/17)
Length of Visible Light 12h 56m
Length of Day
12h 01m
Waxing Crescent, 31% of the Moon is Illuminated
Mar 17
Waxing Crescent
Mar 19
First Quarter
Mar 27
Full
Apr 2
Last Quarter
Apr 10
New

Hourly Weather History & Observations

Time (CDT) Temp. Windchill Dew Point Humidity Pressure Visibility Wind Dir Wind Speed Gust Speed Precip Events Conditions
12:53 AM 28.0 °F 18.1 °F 19.9 °F 72% 30.14 in 10.0 mi East 11.5 mph - N/A   Overcast
1:53 AM 28.0 °F 19.3 °F 21.0 °F 75% 30.12 in 10.0 mi East 9.2 mph - 0.00 in   Overcast
2:53 AM 27.0 °F 18.0 °F 21.0 °F 78% 30.09 in 10.0 mi East 9.2 mph - N/A   Overcast
3:53 AM 26.1 °F 17.6 °F 21.0 °F 81% 30.05 in 10.0 mi East 8.1 mph - N/A   Mostly Cloudy
4:27 AM 26.6 °F 21.2 °F 21.2 °F 80% 29.98 in 10.0 mi East 4.6 mph - N/A   Overcast
4:53 AM 27.0 °F 18.7 °F 21.9 °F 81% 30.04 in 10.0 mi ESE 8.1 mph - N/A   Overcast
5:53 AM 26.1 °F 16.8 °F 21.9 °F 84% 30.04 in 9.0 mi ESE 9.2 mph - N/A   Overcast
6:53 AM 26.1 °F 18.4 °F 21.9 °F 84% 30.05 in 8.0 mi SE 6.9 mph - N/A   Overcast
7:53 AM 26.1 °F 16.2 °F 21.9 °F 84% 30.05 in 8.0 mi SSE 10.4 mph - N/A   Overcast
8:53 AM 26.1 °F 14.5 °F 21.0 °F 81% 30.04 in 9.0 mi SSE 13.8 mph - N/A   Overcast
9:42 AM 26.6 °F 14.7 °F 19.4 °F 74% 29.94 in 10.0 mi SSE 15.0 mph - N/A   Overcast
9:53 AM 27.0 °F 16.1 °F 19.9 °F 75% 30.01 in 10.0 mi SE 12.7 mph - N/A   Mostly Cloudy
10:53 AM 28.9 °F 16.5 °F 19.0 °F 67% 30.00 in 10.0 mi South 18.4 mph 25.3 mph N/A   Overcast
11:53 AM 30.9 °F 20.2 °F 19.9 °F 64% 29.95 in 10.0 mi SSE 15.0 mph 20.7 mph N/A   Mostly Cloudy
12:53 PM 34.0 °F 22.4 °F 23.0 °F 64% 29.90 in 9.0 mi SSE 20.7 mph 26.5 mph N/A   Overcast
1:53 PM 35.1 °F 24.1 °F 25.0 °F 67% 29.85 in 10.0 mi SSE 19.6 mph 26.5 mph N/A   Overcast
2:53 PM 37.0 °F 28.5 °F 25.0 °F 62% 29.80 in 10.0 mi SSE 13.8 mph 24.2 mph N/A   Overcast
3:53 PM 39.0 °F 29.0 °F 27.0 °F 62% 29.75 in 10.0 mi South 20.7 mph 26.5 mph N/A   Overcast
4:53 PM 39.9 °F 31.1 °F 28.0 °F 63% 29.74 in 10.0 mi South 17.3 mph 23.0 mph N/A   Overcast
5:53 PM 41.0 °F 34.7 °F 28.0 °F 60% 29.74 in 10.0 mi SSW 10.4 mph - N/A   Overcast
6:53 PM 37.0 °F 32.4 °F 33.1 °F 86% 29.75 in 4.0 mi SW 5.8 mph - 0.01 in Rain Light Rain
7:28 PM 35.6 °F 28.6 °F 33.8 °F 93% 29.66 in 4.0 mi SE 9.2 mph - 0.02 in Rain Light Rain
7:53 PM 36.0 °F 28.0 °F 34.0 °F 93% 29.70 in 8.0 mi SE 11.5 mph - 0.03 in Rain Light Rain
8:53 PM 37.9 °F 28.5 °F 34.0 °F 86% 29.70 in 10.0 mi SSE 17.3 mph 23.0 mph 0.01 in Rain Light Rain
9:53 PM 35.1 °F 25.2 °F 33.1 °F 92% 29.70 in 10.0 mi SSE 16.1 mph 23.0 mph 0.00 in   Mostly Cloudy
10:11 PM 35.6 °F 26.2 °F 32.0 °F 87% 29.64 in 10.0 mi SSE 15.0 mph 21.9 mph N/A   Mostly Cloudy
10:23 PM 35.6 °F 26.6 °F 32.0 °F 87% 29.63 in 9.0 mi South 13.8 mph 21.9 mph N/A   Mostly Cloudy
10:53 PM 34.0 °F 26.0 °F 32.0 °F 92% 29.70 in 8.0 mi South 10.4 mph 20.7 mph N/A   Overcast
11:48 PM 35.6 °F 27.5 °F 32.0 °F 87% 29.70 in 9.0 mi SW 11.5 mph - N/A   Overcast
11:53 PM 35.1 °F 27.9 °F 32.0 °F 89% 29.76 in 9.0 mi SW 9.2 mph - N/A   Overcast